Location: Ar Ranvel
(48.3000°N, 4.8833°W)
Time: 09:21:02
(UTC+00:00)

Cosmos 1844 Rocket - Visible Passes

Search period start: 28 October 2021 00:00
Search period end: 07 November 2021 00:00
Orbit: 826 x 843 km, 71.0° (Epoch: 27 October)

Date Brightness Start Highest point End Pass type
(mag) Time Alt. Az. Time Alt. Az. Time Alt. Az.
28 Oct 2.6 17:56:19 10° NNW 18:01:54 68° ENE 18:07:26 10° SE visible
28 Oct 5.0 19:41:10 10° NW 19:45:14 21° W 19:49:18 10° SSW visible
29 Oct 2.7 17:39:05 10° NNW 17:44:38 63° ENE 17:50:10 10° SE visible
29 Oct 5.0 19:23:47 10° NW 19:28:04 23° WSW 19:32:20 10° SSW visible
30 Oct 4.9 19:06:25 10° NW 19:10:53 25° WSW 19:15:20 10° SSW visible
31 Oct 4.8 18:49:04 10° NW 18:53:42 27° WSW 18:58:18 10° SSW visible
01 Nov 4.7 18:31:45 10° NW 18:36:30 30° WSW 18:41:16 10° SSW visible
02 Nov 4.6 18:14:25 10° NW 18:19:20 32° WSW 18:24:13 10° SSW visible
03 Nov 4.5 17:57:06 10° NW 18:02:08 35° WSW 18:07:08 10° S visible
04 Nov 4.4 17:39:49 10° NW 17:44:57 38° WSW 17:50:02 10° S visible
05 Nov 4.2 17:22:31 10° NW 17:27:44 42° WSW 17:32:56 10° S visible
06 Nov 4.7 06:32:37 10° S 06:37:36 34° ESE 06:42:35 10° NE visible
